Hourly Data Report for May 12, 2012

All times are specified in Local Standard Time (LST). Add 1 hour to adjust for Daylight Saving Time where and when it is observed.

HAMILTON A
ONTARIO

43°10'25.000" N
79°56'06.000" W
237.70 m
6153193
71263
YHM

Download Data

Hourly Data (May 2012)
Hourly Data Report for May 12, 2012
Temp Definition
°C
Dew Point Temp Definition
°C
Rel Hum Definition
%
Wind Dir Definition
10's deg

Wind Spd Definition
km/h
Visibility Definition
km
Stn Press Definition
kPa
Hmdx Definition


Wind Chill Definition


Weather Definition


TIME
00:00 Legend Double Dagger 10.4 4.6 67 23 10 10.0 99.26     LegendNANA
01:00 Legend Double Dagger 10.4 4.8 68 24 10 10.0 99.24     Clear
02:00 Legend Double Dagger 9.6 4.8 72 25 11 10.0 99.23     LegendNANA
03:00 Legend Double Dagger 8.5 4.7 77 23 12 10.0 99.24     LegendNANA
04:00 Legend Double Dagger 9.5 4.7 72 24 12 10.0 99.25     Mainly Clear
05:00 Legend Double Dagger 8.9 4.7 75 24 11 10.0 99.29     LegendNANA
06:00 Legend Double Dagger 10.3 5.9 74 25 14 10.0 99.37     LegendNANA
07:00 Legend Double Dagger 13.7 6.6 62 24 18 10.0 99.42     Mainly Clear
08:00 Legend Double Dagger 17.6 6.3 47 24 23 10.0 99.42     LegendNANA
09:00 Legend Double Dagger 20.3 6.8 41 24 24 10.0 99.36     LegendNANA
10:00 Legend Double Dagger 22.4 7.6 38 23 24 10.0 99.35     Mostly Cloudy
11:00 Legend Double Dagger 23.3 6.8 34 23 33 10.0 99.36     LegendNANA
12:00 Legend Double Dagger 23.7 7.1 34 22 33 10.0 99.32     LegendNANA
13:00 Legend Double Dagger 23.6 7.5 35 24 26 10.0 99.31     Mostly Cloudy
14:00 Legend Double Dagger 24.2 8.8 37 23 32 10.0 99.26 25   LegendNANA
15:00 Legend Double Dagger 24.0 9.8 40 23 25 10.0 99.22 25   LegendNANA
16:00 Legend Double Dagger 22.9 10.2 44 24 26 10.0 99.20     Mostly Cloudy
17:00 Legend Double Dagger 21.4 9.5 46 24 24 10.0 99.24     LegendNANA
18:00 Legend Double Dagger 19.6 12.0 61 30 22 10.0 99.29     LegendNANA
19:00 Legend Double Dagger 18.1 12.0 67 27 16 10.0 99.33     Mostly Cloudy
20:00 Legend Double Dagger 16.7 11.9 73 28 9 10.0 99.34     LegendNANA
21:00 Legend Double Dagger 16.0 12.0 77 31 9 10.0 99.37     LegendNANA
22:00 Legend Double Dagger 15.9 12.1 78 30 9 10.0 99.39     Cloudy
23:00 Legend Double Dagger 15.1 11.3 78 30 9 10.0 99.39     LegendNANA

Notes on Data Quality.

Legend

  • E = Estimated
  • M = Missing
  • NA = Not Available
  • ‡ = Partner data that is not subject to review by the National Climate Archives
Date modified: